Location: Bratislava
(48.1500°N, 17.1170°E)
Time: 00:12:51
(UTC+02:00)

ISS - Pass Details

Date: 01 April 2019
Orbit: 408 x 410 km, 51.6° (Epoch: 26 April)

Event Time Altitude Azimuth Distance (km) Brightness Sun altitude
Rises 21:46:02 0° 292° (WNW) 2,339 1.3 -23.0°
Reaches altitude 10° 21:48:08 10° 290° (WNW) 1,475 0.0 -23.2°
Enters shadow 21:50:19 37° 277° (W) 654 -2.4 -23.5°
